Location: Bannatyne
(13.0833°N, 59.5333°W)
Time: 06:49:42
(UTC+00:00)

Vanguard 3 - Pass Details

Date: 02 February 2020
Orbit: 508 x 3263 km, 33.3° (Epoch: 17 February)

Event Time Altitude Azimuth Distance (km) Brightness Sun altitude
Rises 00:38:34 0° 303° (WNW) 7,226 12.5 -38.5°
Reaches altitude 10° 00:43:49 10° 307° (NW) 6,126 12.0 -39.8°
Enters shadow 01:00:21 57° 359° (N) 2,932 9.6 -43.7°
Maximum altitude 01:02:16 60° 24° (NNE) 2,761 - -44.2°
Drops below altitude 10° 01:13:45 10° 102° (ESE) 4,025 - -46.9°
Sets 01:16:25 0° 106° (ESE) 4,706 - -47.6°
